| time (UTC) | temp C | wind direction | speed KPH | gust KPH | rain 1hr cm | rain 24hr cm | rain mn cm | humidity % | barometer mb |
| 20260505003049 | 14 | 149 | 4.8 | 12.9 | 0.00 | 0.00 | 0.00 | 75 | 1024.5 |
| 20260505001545 | 13 | 355 | 3.2 | 11.3 | 0.00 | 0.00 | 0.00 | 80 | 1024.3 |
| 20260505000040 | 12 | 134 | 3.2 | 12.9 | 0.00 | 0.00 | 0.00 | 81 | 1024.1 |
| 20260504234533 | 12 | 78 | 3.2 | 9.7 | 0.00 | 0.00 | 0.00 | 82 | 1024.0 |
| 20260504233031 | 11 | 37 | 3.2 | 11.3 | 0.00 | 0.00 | 0.00 | 82 | 1023.8 |
| 20260504231528 | 11 | 35 | 4.8 | 12.9 | 0.00 | 0.00 | 0.00 | 82 | 1023.6 |
| 20260504230027 | 11 | 71 | 3.2 | 12.9 | 0.00 | 0.00 | 0.00 | 82 | 1023.5 |
| 20260504224522 | 11 | 91 | 1.6 | 11.3 | 0.00 | 0.00 | 0.00 | 81 | 1023.3 |
| 20260504223020 | 11 | 70 | 4.8 | 12.9 | 0.00 | 0.00 | 0.00 | 81 | 1023.1 |
| 20260504221522 | 11 | 165 | 4.8 | 12.9 | 0.00 | 0.00 | 0.00 | 81 | 1023.0 |
| 20260504220021 | 11 | 66 | 3.2 | 12.9 | 0.00 | 0.00 | 0.00 | 80 | 1022.9 |
| 20260504214552 | 12 | 25 | 4.8 | 16.1 | 0.00 | 0.00 | 0.00 | 80 | 1022.8 |
| 20260504213050 | 12 | 123 | 3.2 | 11.3 | 0.00 | 0.00 | 0.00 | 80 | 1022.8 |
| 20260504211539 | 12 | 103 | 4.8 | 9.7 | 0.00 | 0.00 | 0.00 | 80 | 1022.9 |
| 20260504210037 | 12 | 114 | 4.8 | 11.3 | 0.00 | 0.00 | 0.00 | 79 | 1023.0 |
| 20260504204535 | 12 | 55 | 0.0 | 14.5 | 0.00 | 0.00 | 0.00 | 79 | 1022.9 |
| 20260504203034 | 12 | 135 | 4.8 | 11.3 | 0.00 | 0.00 | 0.00 | 79 | 1022.9 |
| 20260504201501 | 12 | 104 | 3.2 | 11.3 | 0.00 | 0.00 | 0.00 | 78 | 1022.9 |
| 20260504194557 | 12 | 101 | 4.8 | 11.3 | 0.00 | 0.00 | 0.00 | 77 | 1023.1 |
| 20260504193059 | 12 | 138 | 3.2 | 11.3 | 0.00 | 0.00 | 0.00 | 77 | 1023.1 |
| 20260504191558 | 13 | 130 | 3.2 | 9.7 | 0.00 | 0.00 | 0.00 | 77 | 1023.1 |
| 20260504190108 | 13 | 92 | 0.0 | 11.3 | 0.00 | 0.00 | 0.00 | 77 | 1023.2 |
| 20260504184524 | 13 | 121 | 1.6 | 11.3 | 0.00 | 0.00 | 0.00 | 77 | 1023.4 |
| 20260504183037 | 13 | 121 | 3.2 | 11.3 | 0.00 | 0.00 | 0.00 | 77 | 1023.4 |
| 20260504181525 | 13 | 78 | 3.2 | 12.9 | 0.00 | 0.00 | 0.00 | 76 | 1023.5 |
| 20260504180022 | 13 | 73 | 4.8 | 11.3 | 0.00 | 0.00 | 0.00 | 76 | 1023.6 |
| 20260504174522 | 13 | 125 | 3.2 | 9.7 | 0.00 | 0.00 | 0.00 | 76 | 1023.6 |
| 20260504173021 | 13 | 105 | 4.8 | 12.9 | 0.00 | 0.00 | 0.00 | 75 | 1023.6 |
| 20260504171517 | 13 | 82 | 4.8 | 9.7 | 0.00 | 0.00 | 0.00 | 76 | 1023.7 |
| 20260504081534 | 19 | 171 | 14.5 | 24.1 | 0.00 | 0.00 | 0.00 | 68 | 1023.0 |
| 20260504044537 | 21 | 122 | 3.2 | 11.3 | 0.00 | 0.00 | 0.00 | 53 | 1024.2 |
| 20260504043027 | 21 | 355 | 1.6 | 11.3 | 0.00 | 0.00 | 0.00 | 53 | 1024.4 |
| 20260504041523 | 21 | 355 | 1.6 | 9.7 | 0.00 | 0.00 | 0.00 | 53 | 1024.6 |
| 20260504040020 | 21 | 340 | 1.6 | 8.0 | 0.00 | 0.00 | 0.00 | 55 | 1024.9 |
| 20260504034517 | 20 | 32 | 1.6 | 12.9 | 0.00 | 0.00 | 0.00 | 55 | 1025.1 |
| 20260504033010 | 20 | 63 | 4.8 | 14.5 | 0.00 | 0.00 | 0.00 | 56 | 1025.3 |
| 20260504031508 | 20 | 84 | 3.2 | 11.3 | 0.00 | 0.00 | 0.00 | 59 | 1025.5 |
| 20260504030009 | 19 | 163 | 3.2 | 14.5 | 0.00 | 0.00 | 0.00 | 59 | 1025.5 |
| 20260504024600 | 19 | 109 | 1.6 | 16.1 | 0.00 | 0.00 | 0.00 | 61 | 1025.7 |
| 20260504023101 | 18 | 32 | 4.8 | 16.1 | 0.00 | 0.00 | 0.00 | 63 | 1025.8 |
| 20260504021551 | 18 | 30 | 1.6 | 12.9 | 0.00 | 0.00 | 0.00 | 66 | 1025.9 |
| 20260504020043 | 17 | 82 | 1.6 | 11.3 | 0.00 | 0.00 | 0.00 | 69 | 1026.0 |
| 20260504014547 | 17 | 16 | 4.8 | 14.5 | 0.00 | 0.00 | 0.00 | 70 | 1026.0 |
| 20260504013005 | 16 | 57 | 8.0 | 17.7 | 0.00 | 0.00 | 0.00 | 70 | 1025.9 |
| 20260504011600 | 16 | 360 | 3.2 | 12.9 | 0.00 | 0.00 | 0.00 | 73 | 1026.0 |
| 20260504010028 | 15 | 62 | 4.8 | 11.3 | 0.00 | 0.00 | 0.00 | 74 | 1025.9 |
| 20260504004521 | 15 | 197 | 3.2 | 11.3 | 0.00 | 0.00 | 0.00 | 78 | 1026.0 |